Simultaneous Nadir Overpasses (SNOs) Predictions

Prediction of SNOs between AQUA and METOP-B Satellite Orbit:

Table of predicted SNOs for the next 14.0 days since TLE Epoch: 4/20/2024
Index Date (AQUA) Time (AQUA) Lat,Lon (AQUA) SZA (AQUA ) Date (METOP-B) Time (METOP-B) Lat,Lon (METOP-B) SZA (METOP-B ) Distance(km) Time Diff (sec)
1 04/21/2024 14:27:37 75.63, -39.91 63.41 04/21/2024 14:27:21 75.63, -39.81 63.40 2.78 16
2 04/21/2024 15:17:00 -75.69, 127.57 116.54 04/21/2024 15:18:01 -75.69, 127.72 116.55 3.97 61
3 04/24/2024 05:49:19 -75.57, -90.11 117.54 04/24/2024 05:48:18 -75.60, -90.15 117.51 3.06 61
4 04/24/2024 06:38:43 75.67, 77.25 62.56 04/24/2024 06:38:56 75.65, 77.34 62.54 3.44 13
5 04/26/2024 22:00:21 -75.61, 27.07 118.37 04/26/2024 21:59:53 -75.60, 26.95 118.37 3.44 28
6 04/26/2024 22:49:45 75.66,-165.43 61.68 04/26/2024 22:50:32 75.65,-165.57 61.67 3.89 47
7 04/29/2024 13:21:58 75.63, -23.36 60.84 04/29/2024 13:20:47 75.61, -23.28 60.82 3.37 71
8 04/29/2024 14:11:20 -75.65, 144.26 119.16 04/29/2024 14:11:28 -75.64, 144.13 119.17 3.85 8
9 04/29/2024 15:00:51 76.05, -49.31 61.25 04/29/2024 15:01:59 76.05, -47.18 61.23 57.10 68
10 05/02/2024 05:32:53 75.67, 93.84 60.07 05/02/2024 05:32:21 75.67, 93.98 60.06 3.88 32
11 05/02/2024 06:22:15 -75.69, -98.54 119.93 05/02/2024 06:23:02 -75.69, -98.61 119.92 1.94 47



Historial Predications of SNOs between AQUA and METOP-B
